TimeCST,TemperatureF,Dew PointF,Humidity,Sea Level PressureIn,VisibilityMPH,Wind Direction,Wind SpeedMPH,Gust SpeedMPH,PrecipitationIn,Events,Conditions,WindDirDegrees,DateUTC
12:15 AM,66.2,62.6,88,30.07,7.0,SSE,3.5,-,N/A,,Scattered Clouds,150,2012-12-03 06:15:00
12:35 AM,66.2,62.6,88,30.06,7.0,South,3.5,-,N/A,,Overcast,170,2012-12-03 06:35:00
12:55 AM,66.2,62.6,88,30.06,7.0,Calm,Calm,-,N/A,,Overcast,0,2012-12-03 06:55:00
1:15 AM,68.0,62.6,83,30.06,7.0,Calm,Calm,-,N/A,,Overcast,0,2012-12-03 07:15:00
1:35 AM,68.0,62.6,83,30.05,7.0,Calm,Calm,-,N/A,,Overcast,0,2012-12-03 07:35:00
1:55 AM,68.0,62.6,83,30.05,5.0,South,3.5,-,N/A,,Overcast,180,2012-12-03 07:55:00
2:15 AM,68.0,64.4,88,30.05,2.5,South,3.5,-,N/A,,Overcast,170,2012-12-03 08:15:00
2:35 AM,68.0,64.4,88,30.05,1.5,SSE,4.6,-,N/A,,Overcast,160,2012-12-03 08:35:00
2:55 AM,68.0,64.4,88,30.05,1.2,SSE,3.5,-,N/A,,Overcast,160,2012-12-03 08:55:00
3:15 AM,68.0,64.4,88,30.05,1.5,South,3.5,-,N/A,,Overcast,170,2012-12-03 09:15:00
3:35 AM,68.0,64.4,88,30.05,0.8,SSE,3.5,-,N/A,,Overcast,160,2012-12-03 09:35:00
3:55 AM,68.0,64.4,88,30.05,0.5,Calm,Calm,-,N/A,Fog,Fog,0,2012-12-03 09:55:00
4:15 AM,68.0,64.4,88,30.05,0.8,SSE,3.5,-,N/A,,Overcast,160,2012-12-03 10:15:00
4:55 AM,68.0,64.4,88,30.04,0.8,Calm,Calm,-,N/A,,Overcast,0,2012-12-03 10:55:00
5:15 AM,68.0,64.4,88,30.04,0.8,SSE,3.5,-,N/A,Rain,Light Rain,160,2012-12-03 11:15:00
5:35 AM,68.0,64.4,88,30.04,0.8,Calm,Calm,-,N/A,,Drizzle,0,2012-12-03 11:35:00
5:55 AM,68.0,64.4,88,30.04,1.8,Calm,Calm,-,N/A,,Overcast,0,2012-12-03 11:55:00
6:15 AM,68.0,64.4,88,30.04,3.0,Calm,Calm,-,N/A,,Overcast,0,2012-12-03 12:15:00
6:35 AM,68.0,64.4,88,30.04,3.0,Calm,Calm,-,N/A,,Overcast,0,2012-12-03 12:35:00
6:55 AM,68.0,64.4,88,30.05,1.5,South,3.5,-,N/A,,Overcast,170,2012-12-03 12:55:00
7:15 AM,68.0,64.4,88,30.06,0.8,Calm,Calm,-,N/A,,Overcast,0,2012-12-03 13:15:00
7:35 AM,68.0,64.4,88,30.06,0.2,Calm,Calm,-,N/A,,Drizzle,0,2012-12-03 13:35:00
7:55 AM,68.0,64.4,88,30.06,0.5,South,3.5,-,N/A,Fog,Fog,180,2012-12-03 13:55:00
8:15 AM,68.0,64.4,88,30.06,2.5,South,6.9,-,N/A,,Overcast,190,2012-12-03 14:15:00
8:35 AM,69.8,64.4,83,30.06,3.0,South,5.8,-,N/A,,Overcast,180,2012-12-03 14:35:00
8:55 AM,69.8,66.2,88,30.06,7.0,South,6.9,-,N/A,,Overcast,170,2012-12-03 14:55:00
9:15 AM,69.8,68.0,94,30.06,10.0,South,8.1,-,N/A,,Overcast,180,2012-12-03 15:15:00
9:35 AM,71.6,68.0,88,30.07,10.0,South,9.2,-,N/A,,Overcast,190,2012-12-03 15:35:00
9:55 AM,71.6,69.8,94,30.06,10.0,South,11.5,-,N/A,,Mostly Cloudy,180,2012-12-03 15:55:00
10:15 AM,75.2,71.6,89,30.06,10.0,South,10.4,16.1,N/A,,Mostly Cloudy,190,2012-12-03 16:15:00
10:35 AM,75.2,71.6,89,30.06,10.0,SSW,9.2,-,N/A,,Mostly Cloudy,210,2012-12-03 16:35:00
10:55 AM,77.0,73.4,89,30.06,10.0,South,15.0,-,N/A,,Mostly Cloudy,170,2012-12-03 16:55:00
11:15 AM,78.8,73.4,83,30.04,10.0,South,13.8,19.6,N/A,,Scattered Clouds,180,2012-12-03 17:15:00
11:35 AM,80.6,68.0,65,30.04,10.0,SSE,15.0,21.9,N/A,,Scattered Clouds,160,2012-12-03 17:35:00
11:55 AM,82.4,66.2,58,30.04,10.0,South,12.7,18.4,N/A,,Clear,180,2012-12-03 17:55:00
12:15 PM,82.4,64.4,54,30.03,10.0,South,12.7,-,N/A,,Scattered Clouds,190,2012-12-03 18:15:00
12:35 PM,82.4,64.4,54,30.02,10.0,SSW,5.8,-,N/A,,Mostly Cloudy,210,2012-12-03 18:35:00
12:55 PM,82.4,62.6,51,30.01,10.0,South,11.5,21.9,N/A,,Scattered Clouds,190,2012-12-03 18:55:00
1:15 PM,82.4,64.4,54,30.00,10.0,South,11.5,16.1,N/A,,Scattered Clouds,180,2012-12-03 19:15:00
1:35 PM,84.2,64.4,51,29.99,10.0,SSW,9.2,-,N/A,,Scattered Clouds,210,2012-12-03 19:35:00
1:55 PM,84.2,62.6,48,29.99,10.0,South,10.4,-,N/A,,Scattered Clouds,170,2012-12-03 19:55:00
2:15 PM,84.2,62.6,48,29.98,10.0,SSW,8.1,21.9,N/A,,Scattered Clouds,200,2012-12-03 20:15:00
2:35 PM,86.0,62.6,45,29.98,10.0,SW,9.2,-,N/A,,Scattered Clouds,220,2012-12-03 20:35:00
2:55 PM,86.0,60.8,43,29.97,10.0,South,8.1,-,N/A,,Scattered Clouds,190,2012-12-03 20:55:00
3:15 PM,86.0,62.6,45,29.96,10.0,South,11.5,17.3,N/A,,Scattered Clouds,180,2012-12-03 21:15:00
3:35 PM,86.0,62.6,45,29.96,10.0,SW,9.2,-,N/A,,Clear,220,2012-12-03 21:35:00
3:55 PM,86.0,62.6,45,29.97,10.0,South,8.1,16.1,N/A,,Scattered Clouds,180,2012-12-03 21:55:00
4:15 PM,82.4,60.8,48,29.97,10.0,SSW,6.9,-,N/A,,Clear,200,2012-12-03 22:15:00
4:55 PM,80.6,60.8,51,29.96,10.0,South,9.2,-,N/A,,Scattered Clouds,180,2012-12-03 22:55:00
5:15 PM,80.6,59.0,48,29.96,10.0,South,6.9,-,N/A,,Clear,180,2012-12-03 23:15:00
5:55 PM,77.0,57.2,50,29.97,10.0,SSE,4.6,-,N/A,,Clear,150,2012-12-03 23:55:00
6:15 PM,75.2,59.0,57,29.97,10.0,SSE,5.8,-,N/A,,Clear,160,2012-12-04 00:15:00
6:35 PM,73.4,59.0,61,29.98,10.0,SSE,5.8,-,N/A,,Clear,150,2012-12-04 00:35:00
6:55 PM,73.4,60.8,65,29.98,10.0,SSE,9.2,-,N/A,,Clear,150,2012-12-04 00:55:00
7:15 PM,73.4,60.8,65,29.98,10.0,SSE,9.2,-,N/A,,Clear,160,2012-12-04 01:15:00
7:35 PM,73.4,62.6,69,29.98,10.0,SSE,12.7,-,N/A,,Clear,160,2012-12-04 01:35:00
7:55 PM,71.6,62.6,73,29.99,10.0,SSE,9.2,-,N/A,,Clear,160,2012-12-04 01:55:00
8:15 PM,71.6,62.6,73,29.99,10.0,SSE,10.4,-,N/A,,Clear,160,2012-12-04 02:15:00
8:35 PM,69.8,62.6,78,30.00,10.0,SSE,9.2,-,N/A,,Clear,160,2012-12-04 02:35:00
8:55 PM,69.8,62.6,78,30.00,10.0,SSE,8.1,-,N/A,,Clear,160,2012-12-04 02:55:00
9:15 PM,69.8,62.6,78,30.00,10.0,South,8.1,-,N/A,,Clear,170,2012-12-04 03:15:00
9:35 PM,69.8,62.6,78,30.01,10.0,South,5.8,-,N/A,,Clear,170,2012-12-04 03:35:00
9:55 PM,68.0,62.6,83,30.01,10.0,South,6.9,-,N/A,,Clear,180,2012-12-04 03:55:00
10:15 PM,68.0,62.6,83,30.01,10.0,South,5.8,-,N/A,,Clear,170,2012-12-04 04:15:00
10:55 PM,68.0,64.4,88,30.01,10.0,South,5.8,-,N/A,,Clear,170,2012-12-04 04:55:00
11:15 PM,68.0,64.4,88,30.01,10.0,South,5.8,-,N/A,,Clear,170,2012-12-04 05:15:00
11:35 PM,68.0,64.4,88,30.01,10.0,South,4.6,-,N/A,,Scattered Clouds,170,2012-12-04 05:35:00